Theta_e
303 305 307 305 305 294 296 299 295 298 299 300 296 299 299 298 292 289 299 304 308 311 314 315 318 326 328 329 329 329 328 329 330 329 330 331 333 334 336 337 337 338 338 339 339 338 338 337 333 333 333 332 331 330 329 328 328 326 324 323 321 320 319
304 307 307 305 307 302 298 294 298 300 302 300 295 289 292 292 288 289 301 301 301 303 300 316 322 325 326 327 328 328 328 329 328 329 330 332 333 334 337 338 338 338 338 338 338 338 337 334 333 333 332 332 331 330 329 327 325 325 324 322 322 320 319
304 306 305 304 306 307 302 299 302 300 292 292 291 292 288 286 287 287 298 301 304 302 304 314 318 323 325 326 327 327 327 328 328 329 331 333 335 336 336 336 336 336 336 336 337 336 335 334 334 333 333 331 330 329 328 327 326 323 322 322 322 322 322
304 300 300 294 298 303 304 304 301 301 295 291 293 292 290 291 286 289 294 299 298 307 303 313 318 324 327 327 326 326 328 329 329 330 331 333 335 335 335 335 335 336 336 336 336 334 332 332 333 333 332 330 329 329 329 325 324 323 323 322 323 320 320
301 294 298 295 297 297 299 298 294 299 301 299 296 299 292 289 287 287 291 293 299 306 318 319 320 326 329 328 327 328 329 330 331 331 332 334 335 335 335 335 335 334 334 335 334 332 332 332 332 331 330 329 329 327 323 322 321 321 321 321 321 320 319
293 298 299 302 300 299 298 298 297 298 296 295 293 290 295 295 293 289 290 291 300 311 329 326 324 329 331 332 330 329 331 332 332 332 334 335 335 335 335 335 334 333 333 333 332 332 332 331 330 329 330 329 326 323 322 321 321 321 320 320 319 318 318
296 298 303 305 305 304 302 301 298 300 295 293 289 287 287 293 293 298 295 299 301 314 326 326 328 330 332 334 333 331 332 333 333 333 335 336 336 335 335 335 334 333 333 332 331 331 331 330 329 329 329 328 325 323 322 321 321 321 321 319 319 318 317
301 302 304 305 306 306 301 301 300 299 297 298 296 294 292 294 292 292 297 299 302 313 325 326 332 336 336 335 334 333 334 334 334 334 334 334 334 335 335 335 334 333 332 331 331 330 330 329 329 328 328 327 326 324 322 321 321 320 319 319 319 316 315
292 295 298 300 304 305 301 299 299 301 301 302 300 299 298 295 296 297 298 296 302 313 328 332 335 335 334 334 335 335 333 333 334 333 333 334 334 334 333 333 333 332 331 330 330 330 328 328 328 328 327 327 326 323 321 320 320 320 320 319 316 315 314
287 287 287 291 294 297 300 302 303 304 303 304 301 299 300 295 303 306 300 299 305 316 326 330 333 333 333 335 335 335 334 333 332 333 333 333 333 332 332 332 331 330 329 330 329 328 328 329 329 328 327 327 325 322 320 320 320 320 319 317 315 315 315
289 293 295 299 306 299 298 300 302 304 308 307 304 303 301 298 301 305 306 308 312 317 322 326 330 332 332 332 333 332 332 333 333 333 333 332 332 332 331 331 330 330 329 329 329 329 329 329 328 328 327 324 321 320 320 320 320 318 316 315 315 314 314
299 300 300 302 305 302 305 305 309 312 312 311 309 305 304 308 301 297 307 315 315 317 321 323 327 331 332 333 333 333 333 333 332 332 332 333 332 331 331 330 329 328 328 329 329 329 329 328 328 328 327 324 321 320 319 319 318 317 317 315 314 314 314
301 301 302 303 306 310 310 310 311 311 312 310 308 309 311 310 298 301 309 315 315 318 323 324 328 331 332 332 333 334 335 334 334 332 331 330 330 330 329 328 329 328 328 328 328 328 328 327 327 327 327 326 323 321 320 318 318 317 317 315 315 314 314
301 302 302 303 308 310 311 311 311 312 314 314 314 314 316 311 308 312 317 316 316 321 322 324 329 334 333 333 334 334 334 333 332 331 330 330 329 329 329 329 329 328 328 328 328 328 327 327 327 327 327 325 322 320 318 318 318 317 316 315 315 314 314
298 301 304 305 310 310 308 311 312 312 311 312 316 318 319 320 318 319 318 317 316 323 325 327 331 333 334 333 332 332 333 333 332 331 330 330 329 329 329 329 329 328 328 329 328 327 327 327 327 327 327 323 321 319 319 319 319 318 317 316 315 314 313
296 299 301 301 310 309 308 307 309 310 310 309 312 312 318 316 314 317 317 314 314 321 328 330 331 332 331 330 330 331 332 333 332 330 330 329 329 329 330 330 330 329 328 328 327 327 327 327 327 327 324 322 319 319 320 320 320 320 319 317 315 314 314
294 298 303 303 303 303 302 305 310 311 312 312 313 314 318 321 321 316 312 313 319 323 328 327 328 331 330 330 331 331 332 333 332 331 330 330 330 330 330 330 330 329 329 329 328 328 328 327 328 327 324 322 320 320 320 321 322 320 319 317 316 315 314
296 300 302 303 297 293 296 304 311 314 312 311 310 311 316 319 316 311 314 319 324 325 327 327 327 329 330 331 333 335 334 332 332 331 331 330 331 331 331 331 330 330 331 331 330 329 329 329 330 326 324 321 321 321 322 323 321 319 317 316 316 315 314
297 299 301 296 291 295 306 313 316 316 314 314 313 315 321 325 326 326 325 324 324 326 327 329 330 331 332 334 334 334 336 335 333 332 331 331 331 330 330 330 330 330 331 331 330 330 329 330 328 325 323 323 322 322 323 321 320 318 317 317 316 315 316
299 296 295 290 294 304 313 316 317 318 317 315 313 312 316 322 326 326 324 324 325 326 326 328 330 330 331 332 333 334 336 337 335 332 331 331 331 331 331 330 330 331 331 331 330 330 332 330 327 325 323 324 322 321 322 320 319 319 318 317 316 315 317
297 297 295 297 305 304 306 309 310 310 309 312 310 305 311 320 325 326 323 322 325 326 326 328 329 330 330 327 327 333 335 335 337 335 333 333 333 333 333 333 332 333 333 332 332 332 331 328 326 325 325 324 322 321 320 320 319 319 318 316 316 317 317
301 298 295 294 294 294 299 307 312 317 317 317 316 313 310 317 325 326 325 323 324 326 327 327 328 329 325 319 323 330 334 336 336 337 336 335 335 335 334 334 334 333 333 333 333 332 329 327 326 326 325 324 322 320 320 319 319 318 317 316 317 318 316
302 297 293 293 293 296 303 308 313 318 319 321 321 309 304 313 323 325 326 324 325 326 327 327 328 324 319 318 323 330 334 335 336 334 335 335 335 335 334 333 332 333 333 332 332 331 328 326 326 326 326 323 320 320 320 319 318 317 316 316 317 318 319
299 296 293 296 301 301 310 313 316 319 322 319 306 296 298 311 324 326 325 325 325 325 328 329 326 323 318 320 325 332 335 335 335 334 333 333 334 335 336 335 334 333 334 333 331 329 326 326 327 326 325 322 321 319 319 317 316 315 316 318 320 320 321
302 303 299 303 305 313 318 317 318 321 323 311 298 293 301 316 324 327 326 326 326 326 328 328 323 323 324 326 332 335 335 334 334 334 335 334 334 333 334 334 336 333 333 332 330 328 327 327 327 326 324 321 320 320 318 316 315 317 317 319 321 322 323
300 299 298 298 302 308 314 318 320 323 315 301 300 308 316 323 326 328 327 325 325 327 327 325 324 325 329 334 335 334 334 333 333 333 333 334 334 335 336 336 334 333 333 332 331 329 328 327 327 326 324 322 320 319 317 315 316 319 319 319 319 320 322
304 302 298 297 293 311 321 320 317 321 310 306 312 320 325 329 328 328 327 327 327 327 324 326 328 330 331 332 331 332 333 333 333 332 332 332 332 333 333 333 334 334 332 331 331 330 329 328 327 325 323 321 320 320 317 317 318 319 319 319 318 320 321
300 299 299 298 302 308 324 318 308 313 318 318 325 323 322 329 329 327 326 326 327 327 327 328 329 329 328 329 330 331 332 333 334 332 332 332 332 333 334 334 333 333 331 330 329 330 330 328 326 324 323 322 321 318 317 317 319 321 319 318 318 319 322
308 305 306 313 317 321 322 324 318 322 328 330 329 325 323 327 328 330 327 327 328 328 329 329 328 327 328 327 330 329 331 332 332 331 330 330 331 332 332 332 332 331 329 328 327 327 326 325 324 323 323 322 321 318 317 320 321 320 318 317 318 319 319
317 319 319 321 321 322 325 329 327 328 331 332 331 329 325 328 328 331 328 329 328 330 330 327 327 328 329 328 329 330 331 332 331 331 330 330 332 332 331 331 331 331 329 328 327 325 324 323 322 322 322 322 320 318 319 321 319 318 317 317 318 318 318
309 303 317 320 320 323 325 327 330 332 332 332 333 331 330 330 331 331 331 329 330 330 329 328 328 328 329 328 329 329 329 330 329 329 328 329 330 329 329 330 330 328 328 326 325 324 321 320 319 320 321 320 320 319 319 319 318 317 317 317 318 317 317
305 307 316 321 323 323 325 326 327 327 330 331 331 332 332 332 332 331 330 330 330 331 329 329 328 328 328 327 327 328 328 329 328 328 328 328 329 330 330 330 329 328 327 324 322 321 320 319 320 321 320 319 320 319 318 319 318 317 319 317 316 315 315
314 318 320 321 320 323 327 329 329 329 329 329 329 330 331 331 332 332 332 331 330 330 329 330 328 327 328 328 328 328 328 327 328 328 328 329 329 329 329 329 328 325 323 321 321 321 320 320 320 320 318 320 320 318 318 319 318 318 318 321 318 316 315
309 309 312 317 311 312 321 327 329 330 331 329 329 329 330 330 329 331 331 331 331 330 330 330 329 327 327 328 329 327 327 327 327 328 328 329 328 328 329 329 325 323 323 321 321 321 320 320 320 319 318 320 320 319 319 319 319 319 321 319 316 314 314
306 313 320 321 318 318 321 327 330 330 331 329 328 327 328 330 331 329 328 328 329 329 329 330 329 327 327 328 329 328 327 327 328 328 328 327 327 328 328 325 322 321 320 322 321 321 320 321 320 320 318 320 319 319 319 320 319 319 319 319 317 314 317
319 321 325 325 322 320 324 328 329 330 331 330 329 330 330 330 330 327 326 328 328 328 329 330 331 330 329 330 329 328 327 327 327 327 327 328 328 328 327 324 321 320 320 321 320 320 321 321 320 319 319 320 318 319 319 319 319 318 318 318 316 316 316
317 325 327 326 324 325 327 329 330 330 331 331 330 329 329 329 329 329 328 325 327 330 329 330 331 332 330 330 330 329 328 327 327 327 327 327 328 326 324 322 320 320 320 320 320 320 321 321 319 319 319 320 319 318 319 319 318 318 318 318 317 316 317
Wind_Speed
8 13 7 5 7 4 3 4 4 10 7 7 1 2 1 1 4 6 2 1 3 5 4 6 4 7 4 6 7 10 12 14 13 11 11 11 12 12 12 11 12 13 12 11 10 11 11 11 10 10 10 9 11 11 10 9 8 7 8 7 7 8 8
9 13 10 5 8 8 3 1 9 2 2 4 4 4 1 0 3 5 0 4 2 3 2 3 5 6 4 6 8 8 9 12 11 9 10 11 12 12 12 12 12 12 12 12 11 10 11 11 11 9 10 9 9 10 11 10 8 8 7 7 7 8 9
8 3 8 2 3 7 9 8 4 4 0 0 2 3 0 0 2 2 3 3 1 4 2 3 6 9 6 5 6 10 11 9 11 11 11 11 12 12 13 13 13 12 12 12 12 12 11 13 12 9 8 9 10 10 9 9 9 9 8 7 6 6 6
2 3 5 6 4 6 2 4 2 1 5 2 1 5 4 2 3 2 1 1 4 4 3 4 7 8 11 9 8 9 11 12 13 13 13 14 13 13 13 13 12 12 12 13 14 14 14 15 13 12 12 9 11 10 10 9 8 8 8 8 7 7 6
5 2 1 1 7 7 3 1 3 1 1 3 3 0 3 4 3 4 5 1 5 5 3 2 4 9 13 14 12 10 10 11 12 14 15 14 13 13 13 13 13 13 13 13 12 13 14 13 12 11 11 12 11 10 11 10 11 10 9 7 7 6 7
1 1 3 2 6 6 6 8 9 8 4 3 2 8 3 2 1 3 5 5 5 4 0 3 5 11 12 11 15 10 7 8 10 9 11 13 13 13 13 14 13 13 13 12 12 12 12 12 12 12 11 11 11 11 10 10 9 9 9 7 7 6 6
4 6 8 5 3 5 7 10 9 7 4 6 3 4 6 2 3 6 3 6 2 2 1 2 3 10 8 10 11 12 10 10 10 9 10 10 12 14 14 14 13 12 12 12 13 14 14 13 12 12 11 11 11 10 10 9 10 9 9 8 7 6 6
4 5 6 3 4 2 2 2 2 5 6 9 9 7 6 4 4 2 3 3 3 2 3 3 5 9 10 9 12 15 11 10 11 12 12 12 13 12 12 11 11 12 12 11 12 12 11 11 12 11 10 10 10 9 10 9 10 10 9 8 7 7 6
8 9 9 5 7 2 0 3 3 3 2 1 2 5 2 2 4 2 6 4 3 1 3 6 11 13 13 12 9 13 14 10 12 12 11 10 12 13 13 12 11 11 12 13 12 11 11 11 10 10 10 10 10 9 9 9 10 10 8 7 8 7 7
1 4 4 5 6 6 7 3 2 3 2 6 4 4 3 5 3 5 3 1 4 4 3 7 10 12 11 10 11 8 10 14 13 11 11 11 12 12 13 12 12 13 12 10 9 9 10 10 10 10 9 9 9 9 10 9 10 9 8 8 7 7 6
4 5 5 8 1 4 7 9 7 2 2 5 8 5 6 3 2 4 3 7 5 2 4 6 8 11 14 12 11 12 10 10 10 11 11 11 11 12 14 13 11 10 10 11 10 11 10 10 10 9 9 9 9 10 10 9 9 9 9 9 8 8 7
4 4 4 6 5 4 6 8 10 10 5 5 8 7 4 4 7 3 2 10 11 8 4 7 8 8 10 11 10 11 10 11 11 11 11 12 11 11 10 11 13 13 12 10 10 10 10 9 9 9 8 9 10 11 10 9 9 9 8 9 8 8 7
4 4 3 2 4 7 7 9 10 10 9 10 9 4 5 3 3 6 4 7 11 12 11 11 12 14 14 14 12 12 13 12 11 11 11 11 12 11 12 11 12 12 11 9 9 9 9 10 10 9 9 9 9 8 9 10 10 10 9 9 8 8 7
4 7 4 4 7 7 12 10 9 9 10 8 6 3 0 6 5 7 11 6 6 4 4 6 9 8 11 10 9 10 12 13 12 11 10 11 12 13 12 13 12 12 12 11 11 10 9 11 10 8 7 8 9 10 11 10 10 9 8 8 9 8 8
2 5 4 6 7 11 10 9 11 10 8 7 6 3 5 9 9 7 7 4 1 2 4 8 9 10 9 11 12 12 12 12 12 12 12 10 12 13 12 12 12 12 12 10 9 10 11 11 11 8 7 9 10 10 11 11 10 9 8 8 8 8 8
3 3 5 3 7 10 8 5 5 6 8 7 1 2 3 4 5 6 7 4 3 2 8 10 11 13 14 14 12 10 10 12 13 13 13 11 11 13 12 11 10 9 13 13 11 11 11 11 9 7 8 10 11 11 11 11 10 8 8 9 9 8 8
2 4 3 3 7 7 7 2 3 4 4 4 2 1 2 3 12 9 7 8 4 7 9 13 8 12 11 12 12 10 11 13 13 14 14 13 11 14 14 13 12 11 11 12 12 11 11 10 8 8 10 11 11 11 11 10 9 8 9 10 10 9 8
3 6 5 1 5 6 1 3 3 2 6 7 6 2 1 1 1 3 5 5 7 9 8 14 12 12 15 15 12 14 16 14 13 11 12 12 13 12 11 12 12 11 9 8 9 10 10 9 8 9 10 11 9 9 10 9 10 9 9 9 10 9 8
1 4 8 8 5 2 6 2 2 2 4 7 9 4 2 4 6 8 9 8 9 9 9 12 14 9 6 7 11 8 9 12 13 14 13 12 13 14 13 12 11 12 11 9 9 8 8 8 8 9 9 9 9 9 9 10 9 9 9 9 8 8 8
2 4 3 3 2 3 1 0 2 5 7 7 9 5 3 3 3 9 7 5 4 5 5 4 5 8 7 6 4 7 8 10 12 12 11 12 13 12 11 13 12 11 12 12 11 10 7 8 8 9 9 9 10 9 8 10 9 10 9 8 7 6 7
3 2 2 1 1 3 4 2 2 2 1 2 3 3 2 1 2 7 7 4 3 5 4 7 7 8 9 6 2 5 9 9 12 15 14 14 14 16 16 17 16 14 12 11 11 10 9 9 10 10 9 8 9 9 9 8 9 9 8 8 7 6 6
4 2 1 2 1 1 5 6 6 4 6 3 6 6 0 3 1 4 11 8 6 6 5 8 9 9 8 5 5 5 7 12 11 10 12 12 10 11 11 9 10 12 11 11 11 11 10 10 10 10 10 10 10 10 9 9 9 8 8 7 6 6 6
2 3 3 2 3 4 6 9 8 10 5 1 2 6 1 3 4 4 8 9 7 10 11 9 10 9 8 8 7 6 6 10 12 12 11 12 11 12 13 14 13 13 11 13 13 10 11 11 9 9 9 10 10 9 9 9 8 8 7 6 5 6 6
4 6 4 2 2 2 3 5 5 7 8 2 4 2 3 2 2 4 5 10 9 5 7 10 9 9 8 8 7 4 9 12 13 15 14 13 12 11 10 10 12 14 13 11 12 13 13 12 11 11 9 9 9 9 8 8 8 7 7 7 6 6 6
4 7 1 1 2 4 3 4 6 5 2 4 2 3 3 2 4 6 6 8 7 8 8 8 8 2 3 2 1 8 10 12 10 11 13 13 14 14 12 11 10 10 11 13 13 14 13 13 12 11 9 9 9 9 8 7 8 8 7 6 6 6 6
3 2 4 3 4 5 2 4 4 5 1 0 2 2 2 2 3 5 7 8 5 5 6 4 4 5 2 0 1 9 11 14 14 15 15 14 11 9 9 11 10 10 11 10 10 12 11 13 12 10 10 10 9 8 8 8 8 7 6 5 5 6 6
2 3 4 1 0 1 2 4 2 3 2 3 3 1 1 2 6 7 5 7 8 10 6 5 7 6 5 8 8 8 12 15 15 15 15 16 16 14 13 12 9 9 9 9 10 10 9 10 9 9 10 10 8 8 8 9 7 6 7 6 6 5 6
2 0 1 1 3 1 1 2 1 2 2 4 5 5 2 1 4 6 6 3 6 8 11 10 7 7 9 6 7 4 4 13 14 14 13 13 13 13 12 13 13 12 9 8 8 9 8 7 8 8 9 9 8 8 9 6 6 6 6 5 6 5 5
2 2 4 3 3 1 3 0 3 1 1 2 2 4 4 5 2 3 6 8 7 8 10 10 12 8 6 10 10 11 10 13 15 15 14 14 15 14 13 13 12 11 11 10 10 10 9 9 8 9 9 10 9 10 6 5 6 7 6 5 5 5 5
0 1 0 1 3 3 3 6 2 3 2 2 2 3 4 1 4 7 9 9 10 9 9 11 4 8 9 8 6 3 6 11 12 12 12 12 12 12 11 10 11 11 11 11 12 12 9 11 9 7 8 10 10 8 5 6 7 8 7 6 5 5 5
3 1 2 5 3 1 4 5 5 5 4 2 1 3 4 5 6 4 4 9 9 9 6 9 10 8 7 9 7 4 6 11 12 13 14 14 14 14 13 12 10 9 9 11 11 12 12 8 8 7 7 7 9 6 7 7 7 7 7 6 5 5 5
1 3 3 2 3 4 4 4 4 3 2 3 4 2 2 4 3 5 6 7 7 6 7 8 11 9 8 11 10 9 8 10 12 13 14 13 11 11 13 12 10 11 10 9 9 9 9 8 7 7 7 7 7 8 7 7 7 7 6 5 6 5 5
1 2 1 2 5 6 4 3 2 1 3 3 4 4 4 4 6 6 5 5 8 6 7 6 9 10 6 7 9 9 8 9 10 12 12 12 13 13 13 13 13 12 10 10 10 11 9 7 8 7 6 7 7 8 7 7 8 7 7 5 5 5 4
0 3 2 3 3 1 0 1 3 3 1 4 6 4 5 5 6 6 7 4 4 5 8 9 10 11 8 6 6 9 9 10 11 11 12 12 12 11 10 9 8 11 12 12 11 11 9 8 8 8 7 7 7 8 7 7 8 8 6 6 5 5 4
4 6 4 4 4 3 3 4 3 3 2 4 6 5 4 3 4 6 7 6 5 6 5 7 10 10 10 9 6 9 9 10 11 12 13 11 9 10 9 9 9 10 11 12 11 11 10 8 8 8 7 7 7 7 7 7 8 7 6 6 5 5 4
2 4 3 5 4 6 3 4 4 4 4 5 5 2 2 3 3 4 5 6 10 9 9 7 7 10 8 8 9 9 8 9 10 10 9 11 11 11 11 11 11 12 11 11 12 11 9 9 9 8 8 7 8 7 7 8 7 7 6 6 6 6 6
3 2 2 3 6 5 3 3 3 5 4 5 6 4 3 4 4 4 5 4 6 11 10 8 7 9 11 9 10 11 10 9 9 10 9 8 10 9 9 11 13 13 13 11 9 9 9 9 8 8 8 7 7 7 7 8 7 7 6 6 6 6 6
Wind_Direction
233 226 203 214 137 205 262 117 203 218 172 139 143 349 282 125 39 265 194 26 309 305 356 357 57 77 32 56 86 104 119 128 133 137 135 137 141 144 147 143 142 141 142 144 142 142 141 133 125 129 135 131 126 122 117 112 107 99 95 94 94 97 101
268 228 196 160 179 143 91 141 237 266 99 121 141 219 343 186 190 259 124 167 176 118 225 325 79 89 43 57 64 87 103 121 127 131 133 138 142 143 140 137 138 141 143 144 142 140 134 123 115 125 127 124 121 120 120 116 106 98 94 97 98 100 103
287 80 113 149 222 152 168 191 194 142 251 281 312 97 207 58 251 262 353 327 256 163 235 160 164 149 140 103 105 114 122 127 131 131 130 131 133 136 140 141 143 145 146 145 143 136 123 114 123 127 119 121 120 118 115 113 114 113 110 103 100 96 100
323 28 84 174 236 318 351 1 341 217 105 162 162 190 183 148 249 84 306 27 211 227 213 216 178 155 138 138 138 147 148 152 150 143 143 143 143 144 143 143 145 147 144 144 142 138 131 135 136 138 135 132 125 119 112 113 112 111 106 102 100 98 100
23 352 19 179 204 203 253 319 298 289 197 209 132 263 143 179 183 179 156 225 269 263 216 209 190 157 158 157 157 159 160 156 153 150 147 146 142 143 144 145 146 144 142 142 139 133 136 135 138 136 137 136 131 125 125 127 124 118 111 112 105 105 99
27 256 237 182 171 169 189 199 222 200 180 172 238 269 341 101 176 211 140 225 275 273 130 232 185 163 162 167 151 150 133 131 138 141 142 140 140 141 143 144 142 141 141 139 133 134 137 140 140 138 141 138 134 132 131 127 121 120 120 114 110 104 96
217 226 255 260 216 187 207 186 224 195 155 117 122 241 275 326 245 110 133 129 267 238 316 351 184 160 149 136 130 123 127 135 143 144 140 135 139 142 144 143 142 143 142 139 140 142 144 143 140 142 143 140 136 132 130 131 129 129 122 119 110 104 98
303 305 291 311 354 19 22 266 237 151 194 183 188 191 192 167 319 49 12 57 249 291 339 355 81 92 103 119 132 132 134 140 144 146 144 141 141 138 136 139 141 142 138 136 139 143 144 141 144 150 146 138 132 133 136 135 128 124 119 115 113 106 101
340 345 348 0 325 41 63 256 254 197 182 73 110 82 35 69 337 230 125 185 262 276 12 92 102 108 117 127 138 140 135 136 142 146 146 143 139 139 140 142 141 138 140 145 149 149 146 145 149 150 140 137 138 141 140 133 127 125 120 117 115 112 110
357 335 338 308 328 285 273 276 307 295 131 120 77 65 24 81 319 80 95 147 265 277 45 106 116 121 122 134 134 130 134 141 143 144 145 143 145 148 144 141 142 147 147 142 143 147 147 149 150 145 137 140 144 142 139 132 128 125 122 122 120 117 116
183 216 230 257 261 319 317 308 341 318 103 74 98 111 83 135 204 87 202 162 140 114 119 129 135 138 140 135 137 137 131 128 130 139 143 147 150 151 150 150 150 141 144 148 150 153 153 150 149 146 140 141 140 141 137 129 130 129 132 129 127 124 124
206 205 203 258 343 28 28 56 55 45 50 109 79 84 151 158 78 356 274 155 141 185 185 167 148 142 136 134 129 130 132 138 143 145 147 144 147 150 149 147 148 153 152 148 152 155 150 150 151 145 141 143 144 147 138 134 136 134 137 136 134 133 135
259 205 221 45 49 71 64 53 59 54 37 58 96 129 154 141 128 186 219 169 156 186 185 177 166 159 152 147 144 145 143 139 139 143 147 149 150 152 153 154 153 150 151 154 160 157 153 150 155 152 148 142 145 137 135 140 141 145 144 138 139 140 140
321 312 349 61 98 79 73 67 53 47 52 56 56 46 348 164 151 155 149 183 195 175 191 156 149 141 131 130 130 135 142 144 141 146 149 151 155 158 162 163 160 157 156 161 163 156 155 158 159 157 149 145 143 138 142 144 146 150 141 138 141 146 146
305 296 327 86 117 104 98 96 97 85 76 55 44 72 68 70 62 95 119 99 61 316 106 110 122 123 123 129 148 152 148 144 144 151 155 155 160 163 166 167 165 162 156 161 156 156 160 162 166 158 148 139 136 140 144 147 151 155 138 136 146 147 149
317 314 354 52 85 83 91 83 85 102 96 86 317 104 206 130 153 137 118 127 190 168 117 116 128 137 146 152 154 152 153 154 152 153 159 158 162 162 165 168 163 168 162 161 164 163 164 166 164 149 142 139 142 146 150 151 152 140 128 136 143 149 149
275 278 10 108 117 72 54 23 169 116 84 132 132 11 15 158 149 138 156 212 183 142 139 122 140 150 155 153 158 153 157 161 160 159 160 164 165 168 168 168 166 166 171 168 166 167 165 166 159 150 143 143 150 150 151 150 139 136 139 140 140 143 150
265 304 331 0 54 50 67 236 214 170 161 153 110 75 3 335 98 200 191 159 127 129 145 142 161 162 173 171 179 168 162 164 166 161 159 160 161 164 165 164 161 166 170 168 165 168 170 161 151 148 145 148 148 144 138 137 139 139 137 139 140 144 145
304 351 23 45 37 4 258 322 20 78 106 96 103 82 48 106 98 95 96 115 142 164 164 162 165 162 147 155 154 168 163 157 159 164 166 166 163 162 164 166 167 165 167 164 159 160 167 156 140 134 132 138 140 138 134 133 136 135 138 139 142 146 148
33 40 29 86 189 235 280 92 141 118 110 126 92 53 1 347 126 126 123 134 128 133 123 111 121 129 122 108 137 152 159 158 152 156 165 167 164 163 166 166 169 171 170 165 162 161 154 146 139 137 142 146 142 140 135 135 140 141 143 141 148 148 141
124 170 107 176 318 337 338 7 321 325 251 175 149 127 310 226 204 130 131 104 97 109 109 118 106 107 106 113 134 175 161 158 157 160 165 170 176 173 174 171 171 174 167 160 157 153 154 149 144 144 145 143 137 135 136 139 142 146 143 146 154 157 147
113 139 344 8 22 190 272 246 264 292 291 202 149 99 244 309 221 152 138 150 149 126 114 116 120 110 103 143 210 205 163 155 156 160 162 164 165 167 167 167 158 157 159 157 153 154 151 152 150 151 148 149 146 142 142 145 145 149 149 157 163 159 157
94 81 143 188 158 241 212 264 284 290 328 283 108 69 332 265 188 200 144 146 159 151 140 138 131 124 154 199 208 217 147 150 145 142 148 155 160 160 162 160 158 162 162 160 155 150 148 151 152 145 139 139 140 141 144 146 147 149 160 164 167 164 170
163 139 94 166 193 224 257 247 275 287 312 320 58 37 283 257 179 159 147 153 161 168 147 142 141 151 170 195 211 188 153 147 148 143 145 149 154 152 154 158 163 158 152 152 157 149 154 155 151 146 140 140 141 144 149 146 149 159 169 174 181 177 171
37 80 170 24 302 279 282 285 297 304 292 77 89 189 233 250 172 170 170 167 158 148 148 156 144 224 196 181 215 135 135 124 128 133 137 141 139 151 160 153 149 153 156 162 162 156 157 155 154 151 143 142 149 151 151 151 167 176 178 174 171 181 176
57 120 112 205 235 236 220 278 266 279 30 15 212 236 202 166 169 175 159 141 134 132 139 131 132 175 217 70 198 141 146 141 140 139 137 134 130 132 133 140 149 153 155 159 156 155 154 152 151 149 149 155 155 152 152 169 184 181 165 169 162 165 174
33 56 79 16 118 274 229 298 359 24 107 229 204 154 9 131 141 138 135 140 147 137 121 130 141 153 149 149 158 160 149 137 140 142 142 141 142 144 141 144 150 151 150 153 155 145 140 144 146 151 151 152 158 156 167 184 177 171 170 165 158 160 169
144 68 100 196 211 225 297 47 179 254 201 187 169 132 103 63 129 145 123 120 150 147 133 141 141 149 139 138 148 152 159 136 136 137 137 136 132 137 146 149 151 151 146 138 127 126 134 141 151 152 150 153 161 165 186 177 167 169 163 164 158 162 172
134 189 212 247 240 229 316 170 218 173 4 72 171 118 155 153 187 145 130 145 152 151 141 141 146 148 166 155 164 159 164 142 140 140 142 137 137 143 147 150 145 143 145 145 138 142 147 144 156 161 160 159 163 178 187 156 167 165 165 157 158 168 178
254 148 172 197 53 46 31 42 62 110 58 24 79 142 141 186 169 167 159 162 153 151 156 134 160 147 152 143 152 153 135 129 127 126 123 119 121 127 131 138 143 145 146 149 148 144 150 160 168 158 156 158 167 186 166 170 162 161 159 157 165 175 177
79 172 332 87 139 149 83 79 46 44 51 43 43 91 118 157 161 165 154 151 151 153 167 147 144 139 139 131 128 137 133 132 135 132 128 133 139 142 146 148 142 138 144 147 155 154 155 165 158 156 153 163 167 159 162 162 154 152 159 164 168 177 179
128 206 222 183 146 125 126 122 113 99 72 47 38 68 123 129 127 131 137 121 115 136 143 148 134 134 143 141 148 159 166 152 142 135 136 141 146 147 144 142 137 135 155 165 155 153 152 161 156 152 151 154 158 156 154 155 150 155 159 170 171 184 189
327 15 42 128 80 53 40 49 43 147 151 109 73 73 85 99 116 131 132 141 150 158 148 133 129 130 148 161 156 155 155 143 138 138 141 150 148 147 150 158 158 158 160 152 155 154 160 159 153 152 152 153 156 156 159 153 150 155 169 179 175 191 197
57 172 216 141 103 218 250 216 176 151 173 110 101 89 83 94 111 128 139 133 149 141 149 148 147 143 155 175 164 152 149 143 140 140 142 147 150 156 155 144 138 145 150 151 156 157 159 160 155 155 156 159 161 160 157 156 153 158 170 179 183 203 197
213 243 238 195 149 149 217 180 169 162 149 105 108 116 120 121 133 139 139 145 161 153 162 158 151 151 159 170 157 139 142 145 148 149 147 149 150 155 140 126 141 145 151 153 151 156 161 159 159 159 160 162 162 164 161 160 159 167 170 179 187 205 208
193 217 209 156 139 159 185 190 159 145 132 117 116 132 135 125 125 133 133 144 147 156 157 163 161 154 154 158 141 131 128 138 142 150 154 158 155 152 148 145 148 146 149 154 159 161 160 160 160 162 162 169 168 170 169 167 168 168 175 180 195 209 216
192 212 193 151 133 136 135 144 137 141 153 139 133 143 146 113 101 120 116 101 129 146 152 155 150 151 146 146 139 138 141 148 151 145 137 131 141 147 144 144 152 155 158 159 159 158 160 164 165 166 166 175 175 172 176 173 169 171 181 185 199 215 223